sat.trackr.live / text

‹ back to catalog

GSAT-17

NORAD 42815 · 2017-040B

PAYLOAD ACTIVE UNKNOWN

§ Identity

Operator
Country
IND
Launch date
2017-06-28
Launch site
FRGUI
Launch vehicle
Mass (kg)
RCS (m²)

Purposes: comms, earth_obs

External: N2YO · Heavens-Above · Gunter

§ Orbital elements

Epoch: 2026-05-24T20:32:21.609888Z

Period
1,436.13 min
Inclination
0.0692°
Eccentricity
0.0002601
Mean motion
1.00269706 rev/d
Perigee alt
35,776.2 km
Apogee alt
35,798.1 km
Semi-major
42,165.3 km
B*
0.0000e+0
RAAN
91.6599°
Arg perigee
223.6720°
Mean anomaly
328.6953°
Rev number
3,255

§ Raw data

GSAT-171 42815U 17040B   26144.85580567 -.00000261  00000+0  00000+0 0  99912 42815   0.0692  91.6599 0002601 223.6720 328.6953  1.00269706 32551

JSON: /api/v1/satellites/42815 · /tle

For live sub-satellite position, see the globe view (requires WebGL).

§ Visibility from observer

Set your observer location to see the next 7 days of passes ≥ 10°. The values pass through the URL so the page stays shareable.

No JS? Fill the form by hand. The geolocation button needs JavaScript.